Location: Sinnemahoning State Park
(41.4031°N, 78.0230°W)
Time: 06:23:04
(UTC-04:00)

Daily predictions for brighter satellites

Satellite Brightness Start Highest point End
(mag) Time Altitude Azimuth Time Altitude Azimuth Time Altitude Azimuth
Cosmos 1680 Rocket 3.6 20:59:38 10° SSW 21:04:52 87° WNW 21:10:07 10° NNE
Meteor 2-13 Rocket 4.5 20:59:04 10° N 21:05:08 72° E 21:11:12 10° SSE
Meteor 1-19 Rocket 4.3 21:00:28 10° S 21:06:16 84° E 21:12:00 10° N
Aureole 1 Rocket 2.1 21:03:59 10° SSW 21:07:11 83° ESE 21:10:10 10° NNE
Cosmos 1346 3.1 21:05:17 10° SSW 21:08:01 71° W 21:10:48 10° N
Cosmos 2056 Rocket 4.2 21:04:19 10° N 21:09:07 37° ENE 21:13:51 10° SE
USA 81 4.4 21:05:30 10° S 21:10:46 74° W 21:16:05 10° N
Envisat 3.0 21:06:02 10° SSE 21:11:07 81° ENE 21:16:13 10° N
DNEPR-1 R/B 4.1 21:10:34 10° NW 21:14:46 58° WSW 21:19:23 10° SSE
Lacrosse 5 rocket 4.4 21:13:42 10° NNW 21:15:14 11° N 21:16:46 10° NNE
SAR-Lupe-4 3.6 21:12:36 10° SSE 21:16:10 69° ENE 21:19:46 10° N
Cosmos 2082 Rocket 3.4 21:12:12 10° SSE 21:16:20 21° E 21:20:28 10° NE
COSMOS 2406 4.0 21:14:06 10° SW 21:19:43 57° WNW 21:25:21 10° NNE
Okean 1-7 Rocket 3.6 21:18:40 10° S 21:23:04 64° E 21:27:33 10° NNE
Cosmos 1743 3.8 21:19:27 10° NNW 21:23:12 46° W 21:26:57 10° SSW
YAOGAN 6 2.8 21:20:17 10° SSE 21:23:40 49° ENE 21:27:05 10° N
Okean 2 3.7 21:21:58 10° SSE 21:25:51 44° E 21:29:46 10° NNE
Cosmos 1606 Rocket 4.2 21:22:44 10° N 21:26:46 37° ENE 21:30:35 11° SE
Cosmos 1025 Rocket 2.9 21:26:55 10° S 21:31:09 70° E 21:35:24 10° NNE
SPOT 5 4.0 21:28:06 11° ESE 21:31:24 25° ENE 21:34:57 10° NNE
Meteor 1-15 Rocket 4.3 21:26:41 10° N 21:32:14 64° ENE 21:37:45 10° SSE
CZ-4B DEB 2.8 21:29:25 10° S 21:32:22 72° WSW 21:35:23 10° NNW
SAR-Lupe-1 4.1 21:28:50 10° SSE 21:32:25 86° WSW 21:36:02 10° NNW
Cosmos 1697 Rocket 4.1 21:28:51 10° N 21:33:26 25° NE 21:37:54 10° ESE
MOS 1-B Rocket 4.5 21:29:13 10° SE 21:34:44 48° ENE 21:41:05 10° N
Cosmos 1726 Rocket 4.2 21:31:39 10° N 21:35:42 39° ENE 21:39:06 14° SE
Cosmos 2341 Rocket 4.4 21:30:29 10° N 21:36:39 50° ENE 21:42:28 12° SSE
Cosmos 405 3.2 21:34:05 10° NNW 21:37:38 74° W 21:41:09 10° S
Cosmos 2369 4.1 21:33:08 10° NNW 21:38:43 51° ENE 21:43:25 14° SE
Cosmos 1666 3.8 21:37:01 10° NNW 21:40:35 42° W 21:44:07 10° SSW
USA 186 4.4 21:38:32 10° SW 21:40:47 18° W 21:42:59 10° NW
COSMOS 2487 3.1 21:38:06 10° S 21:41:21 35° ESE 21:44:39 10° NE
CENTAUR R/B 4.3 21:35:11 10° NW 21:42:23 37° WSW 21:49:54 10° S
MetOp-A 4.4 21:41:21 13° SSE 21:46:03 55° ENE 21:51:17 10° N
ERS-1 Rocket 3.0 21:41:26 11° SSE 21:46:15 73° ENE 21:51:16 10° N
USA 245 3.9 21:47:12 16° E 21:47:45 18° ENE 21:49:25 10° NNE
Cosmos 1371 Rocket 4.2 21:43:47 10° NNW 21:49:06 73° WSW 21:54:08 11° S
Cosmos 1833 Rocket 3.2 21:44:02 10° S 21:49:06 37° ESE 21:54:13 10° NE
Cosmos 1238 Rocket 4.4 21:44:13 10° SSW 21:50:58 72° W 21:57:18 10° N
CRYOSAT 2 4.4 21:46:38 10° S 21:51:29 85° W 21:56:21 10° N
ISS -1.3 21:48:51 10° W 21:51:39 25° NNW 21:54:28 10° NE
OAO 2 Rocket 4.2 21:47:23 10° WSW 21:51:45 32° SSW 21:54:39 18° SE
SPOT 1/Viking Rocket 4.5 21:49:30 16° SE 21:53:00 34° ENE 21:57:36 10° N
Cosmos 2058 Rocket 3.5 21:51:18 10° N 21:55:37 48° E 21:58:30 19° SE
YAOGAN 11 4.1 22:02:04 20° SSE 22:04:53 63° ENE 22:09:12 10° N
Cosmos 2181 Rocket 4.0 21:58:59 10° S 22:05:16 69° E 22:11:31 10° NNE
Cosmos 1437 Rocket 3.2 22:02:16 10° NNW 22:06:05 60° W 22:09:19 14° S
ASTEX 1 4.0 22:01:38 10° S 22:06:27 56° W 22:11:15 10° NNW
Intercosmos 24 4.5 22:04:36 10° NNW 22:08:10 47° W 22:11:24 12° SSW
Cosmos 1066 Rocket 4.4 22:06:49 17° SSE 22:10:49 50° E 22:16:16 10° NNE
Cosmos 1515 3.8 22:09:19 11° SSW 22:13:01 75° W 22:16:50 10° N
H-2A R/B 3.8 22:11:41 16° E 22:13:37 21° ENE 22:17:02 10° NNE
Cosmos 1980 Rocket 3.1 22:17:38 10° N 22:22:49 35° ENE 22:25:49 21° ESE
Cosmos 1626 Rocket 4.0 22:21:47 30° SE 22:23:18 41° E 22:27:22 10° NNE
ARGOS 3.1 22:20:50 21° SSE 22:24:32 89° WSW 22:30:01 10° NNW
Cosmos 2228 3.0 22:29:22 10° N 22:33:40 75° W 22:35:49 28° S
TELKOM 3 3.3 22:31:16 10° WNW 22:33:41 69° SSW 22:33:54 64° S
Cosmos 2322 Rocket 4.1 22:30:23 10° N 22:34:14 18° NE 22:37:39 11° E
Cosmos 921 Rocket 3.9 22:30:11 10° NNW 22:34:27 45° WSW 22:37:02 21° SSW
Cosmos 1953 4.4 22:32:36 10° NE 22:34:52 14° ENE 22:35:24 14° E
Tiangong 2 1.2 22:35:25 10° WNW 22:38:36 72° N 22:39:21 47° ENE
SL-8 Rocket 4.0 22:33:54 10° N 22:40:12 86° W 22:44:11 24° S
H-2A R/B 1.9 22:38:01 31° SSE 22:40:24 81° ENE 22:45:30 10° N
Landsat 7 3.9 22:40:01 35° SE 22:41:53 63° ENE 22:46:35 10° N
Cosmos 1766 3.8 22:38:16 10° N 22:42:00 42° ENE 22:42:36 39° ESE
Cosmos 2366 rocket 3.9 22:40:56 10° N 22:47:08 80° E 22:50:17 31° SSE
CZ-3A R/B 2.7 22:49:27 10° W 22:51:17 18° NW 22:51:31 17° NW
Lacrosse 5 rocket 3.7 22:52:29 10° NNW 22:56:05 22° NNE 22:59:32 11° ENE
Terra 1.9 22:55:30 42° SE 22:56:54 62° ENE 23:01:37 10° N
Meteor 1-4 Rocket 2.9 22:54:06 10° NNW 22:57:37 54° W 22:58:16 46° SW
Cosmos 1602 Rocket 3.5 22:57:24 38° SSW 22:59:00 81° W 23:03:21 10° N
Cosmos 2082 Rocket 2.9 22:54:24 10° SW 22:59:57 54° WNW 23:05:31 10° NNE
Cosmos 1269 Rocket 3.9 23:01:07 33° S 23:03:35 79° ESE 23:08:54 10° NNE
Cosmos 1420 Rocket 4.1 23:02:00 10° NNW 23:07:14 71° WSW 23:08:59 42° S
SPOT 5 4.1 23:07:20 20° SW 23:09:23 29° W 23:13:11 10° NW
DMSP B5D2-2 4.1 23:04:09 10° NNE 23:09:28 85° WNW 23:11:58 32° SSW
Cosmos 1048 Rocket 3.9 23:08:12 31° SSW 23:10:42 86° WNW 23:15:55 10° NNE
Cosmos 1805 3.6 23:06:55 10° N 23:10:42 49° ENE 23:10:42 49° ENE
Meteor 2-14 Rocket 4.4 23:07:10 10° N 23:13:16 83° W 23:15:45 38° S
deb Chang Zheng 4 3.4 23:09:39 10° NNE 23:13:58 71° ESE 23:14:27 64° SSE
Meteor 1-22 Rocket 4.4 23:12:00 10° NNW 23:17:15 61° W 23:19:21 36° SSW
Cosmos 1697 Rocket 3.2 23:12:16 10° NW 23:17:41 50° WSW 23:19:38 35° SSW
Cosmos 1758 3.8 23:14:20 10° N 23:18:04 47° ENE 23:18:04 47° ENE
Cosmos 389 Rocket 3.6 23:15:54 10° N 23:18:31 33° NE 23:18:31 33° NE
Spot 4 4.0 23:21:37 51° ESE 23:22:25 58° ENE 23:27:10 10° N
USA 267 4.1 23:18:17 10° ENE 23:22:58 29° ESE 23:22:58 29° ESE
Lacrosse 5 2.9 23:25:30 31° E 23:25:30 31° E 23:28:38 10° ENE
CARTOSAT-1 3.7 23:24:03 57° SSW 23:24:41 65° W 23:28:59 10° NNW
Cosmos 2360 4.1 23:20:49 10° NNW 23:26:34 87° WSW 23:28:04 52° SSE
Timation 2 Rocket 4.4 23:20:27 10° SW 23:26:45 61° WNW 23:32:50 10° NNE
Iridium 2 3.7 23:24:00 10° N 23:27:42 77° WNW 23:27:42 77° WNW
SL-16 R/B 3.0 23:22:29 10° NNW 23:27:52 42° ENE 23:29:33 34° E
ISS -0.6 23:27:11 10° NW 23:29:00 14° N 23:30:50 10° NNE
NOSS 3-1 (C) 4.4 23:23:12 10° NNW 23:30:38 58° NE 23:34:52 30° ESE
IGS 5A 3.8 23:32:35 53° WSW 23:32:56 55° W 23:37:03 10° NNW
Cosmos 1833 Rocket 4.3 23:28:02 10° WSW 23:33:02 33° WNW 23:38:06 10° N
SeaSat 1 4.5 23:30:48 14° E 23:33:05 19° NE 23:36:27 10° N
DELTA 2 DEB (DPAF) 4.1 23:34:37 65° E 23:34:54 68° ENE 23:39:22 10° N
SL-19 R/B 4.3 23:32:59 10° N 23:38:16 68° WNW 23:40:12 38° SW
ATLAS CENTAUR R/B 2.2 23:35:18 10° NNW 23:38:30 35° NE 23:38:30 35° NE
Cosmos 1842 3.8 23:38:51 49° W 23:39:08 51° W 23:42:59 10° N
Cosmos 1271 Rocket 3.4 23:36:48 10° NNW 23:40:35 47° W 23:40:35 47° W
CZ-4C R/B 3.7 23:45:30 54° N 23:45:30 54° N 23:48:27 10° N
Cosmos 1758 Rocket 3.5 23:47:43 76° NE 23:47:43 76° NE 23:51:52 10° N
Cosmos 2251 Rocket 3.6 23:47:57 58° ESE 23:48:09 59° ESE 23:53:27 10° NNE
H-2A R/B 3.0 23:48:48 37° WSW 23:49:21 38° W 23:53:36 10° NNW
Cosmos 1733 4.1 23:45:40 10° N 23:48:41 43° NE 23:48:41 43° NE
Cosmos 1544 4.2 23:46:33 10° NNW 23:49:33 39° WNW 23:49:33 39° WNW
